Location: Ch�tillon
(48.8024°N, 2.2935°E)
Time: 22:57:58
(UTC+00:00)

DIWATA 2B (PO-101) - Pass Details

Date: 28 June 2022
Orbit: 583 x 599 km, 98.0° (Epoch: 07 August)

Event Time Altitude Azimuth Distance (km) Brightness Sun altitude
Exits shadow 01:13:53 14° 146° (SE) 1,709 ? -15.7°
Maximum altitude 01:17:24 54° 72° (ENE) 732 ? -15.5°
Drops below altitude 10° 01:21:33 10° 355° (N) 1,952 ? -15.3°
Sets 01:23:45 0° 351° (N) 2,860 ? -15.2°
